Reflectivity
-20 -20 -20 -20 -20 -20 -20 -20 -1 -13 7 -20 -20 -20 -20 -20 -20 -20 -20 -20 -20 -20
-20 -20 -20 -8 17 -19 -20 -19 4 -6 -5 -20 -20 -20 -20 -20 -20 -20 -20 -20 -20 -20
-20 -20 -12 -4 -20 -16 20 -3 3 -1 -20 -20 -20 -20 -20 -20 -20 -20 -20 -20 -20 -20
-20 14 10 -20 10 -20 -20 22 -11 -11 -20 -20 -20 -20 -20 -20 -20 -20 -20 -20 -20 -20
8 -9 -17 -17 15 -20 21 -20 3 -20 -20 -20 -20 -20 -20 -20 -20 -20 -20 -20 -20 -20
-19 -20 -20 2 25 -14 -4 15 -5 -20 -20 -20 -20 -20 -20 -20 -20 -20 -20 -20 -20 -20
14 -14 -18 19 -15 11 6 11 -19 -20 -20 -20 -20 -17 -1 -20 -20 -20 -20 -20 -20 -20
10 -19 18 -14 -10 24 0 1 -20 -20 -20 -20 21 16 -18 -20 -20 -20 -20 -20 -20 -20
-4 19 -20 28 20 -6 11 -17 -20 -20 3 23 0 -20 -20 -20 -19 -20 -20 -20 -20 -20
12 -8 31 24 23 33 -5 -5 21 24 24 -0 -18 -7 5 -6 -20 -20 -20 -20 -20 -20
16 35 40 29 30 -13 -2 -20 -2 -4 -20 -16 -6 8 -18 -20 -20 -20 -20 -20 -20 -20
30 32 34 18 6 17 15 -17 -10 -6 4 11 -15 -20 -20 -20 -20 -20 -20 -20 -20 -20
39 35 5 -20 -20 -20 -20 1 18 12 -2 -20 -20 -20 -20 -20 -20 -20 -20 -20 -20 -20
7 16 8 -20 -17 16 17 4 -16 -20 -20 -20 -20 -20 -20 -20 -20 -20 -20 -20 -20 -20
Wind_Speed
15 11 11 13 11 9 9 9 11 9 8 7 7 6 6 4 3 4 2 2 0 1
14 15 13 12 11 10 11 10 10 10 8 7 7 7 6 4 4 3 2 2 1 1
12 13 14 14 14 13 12 13 12 9 8 7 7 6 5 4 4 3 1 1 1 1
13 14 14 13 13 14 13 12 12 9 7 7 7 6 4 4 3 2 1 1 1 2
15 15 14 12 13 14 13 11 10 8 7 7 6 5 4 2 2 1 1 2 2 3
15 15 15 15 13 14 12 11 8 8 7 7 6 5 4 3 3 3 3 3 2 3
14 15 14 14 14 14 12 10 8 8 8 7 6 4 3 2 3 4 3 4 3 3
14 14 14 15 14 12 11 8 9 9 7 6 5 4 4 4 5 5 5 6 4 3
15 15 14 12 13 12 11 8 8 7 6 5 4 6 4 3 3 5 5 5 5 5
14 14 12 13 9 11 9 10 9 6 5 6 6 6 3 6 3 5 6 6 5 5
15 11 9 10 10 7 7 7 7 6 5 4 4 5 3 6 5 5 6 6 6 5
13 10 8 10 9 9 7 5 5 4 4 4 5 4 2 5 5 5 7 5 6 6
11 12 8 7 7 6 5 5 4 4 3 5 1 2 3 5 2 5 4 5 6 12
9 10 9 8 6 5 5 5 3 2 2 3 3 1 4 7 2 3 5 4 4 4
Wind_Direction
146 149 152 158 155 155 151 146 137 137 126 130 125 124 126 122 131 124 137 128 86 305
151 149 151 146 152 148 144 141 140 129 124 135 130 137 138 140 142 139 167 184 189 234
144 140 144 150 149 148 142 139 132 122 128 128 124 122 118 120 130 113 319 141 94 312
144 142 150 148 144 138 133 138 130 126 130 128 130 130 133 130 130 157 242 325 267 292
142 142 145 131 132 127 129 123 120 123 123 122 116 111 104 88 73 164 285 285 317 304
137 132 129 128 128 121 121 120 116 117 117 111 109 104 85 69 11 336 309 287 281 276
131 129 126 126 122 117 122 118 114 104 102 105 108 97 73 24 347 323 315 309 296 279
128 124 123 118 118 117 114 107 106 105 103 102 111 90 52 21 357 337 326 319 301 296
120 115 107 114 117 114 109 111 101 101 109 123 100 101 53 10 344 322 314 307 306 302
101 104 112 104 106 106 123 114 108 114 132 116 119 102 41 342 332 308 294 285 286 287
95 106 130 126 114 125 106 114 121 124 112 112 112 122 41 336 328 312 299 293 286 279
123 135 127 122 125 105 110 115 95 120 103 80 75 137 24 357 333 316 309 313 326 313
141 127 134 122 112 103 100 110 99 87 83 124 186 310 13 346 331 316 310 323 309 312
111 121 109 97 90 99 89 94 98 123 237 183 169 200 306 321 332 288 284 277 285 277